Starlink 33669

operational
NORAD ID: 63283 Int'l Des: 2025-053 Owner: SPXS Country: US Constellation: starlink
LEOCIRCULAR

关于 Starlink 33669

正在加载描述...

实时位置

正在加载3D地球...

即将过境

高度历史

Altitude vs Time

uPlot chart will show altitude changes over time

两行轨道根数

1 63283U 25053U 25352.25408221 .00028359 00000-0 10360-2 0 9997
2 63283 42.9993 341.2702 0001493 274.5627 85.5055 15.27584818 43744
Epoch: Dec 18, 2025 • Age: 17 hours

当前状态

高度 494.8 km
速度 7.62 km/s
星下点 -41.84°S, 158.55°E
发射日期 Mar 15, 2025
运行时间 0.7 years
类型 internet

技术详情

分类 Payload
质量 575.00 kg
干质量 530.00 kg
总质量 575.00 kg
长度 0.30 m
直径 4.10 m
跨度 29.00 m
形状 Box + pan
制造商 SPXS
平台类型 Starlink V2MO
阶段状态 In Orbit
所有者/国家 SPXS/US

大型星座

Loading constellations...